Location: Gouy
(50.0008°N, 3.2556°E)
Time: 01:45:17
(UTC+00:00)

Daily predictions for brighter satellites

Satellite Brightness Start Highest point End
(mag) Time Altitude Azimuth Time Altitude Azimuth Time Altitude Azimuth
GENESIS II 4.4 00:03:43 10° NW 00:07:31 73° NNE 00:07:31 73° NNE
Cosmos 2333 4.2 00:03:29 10° NW 00:09:15 65° WSW 00:10:14 55° SSW
Cosmos 2219 Rocket 2.1 00:04:05 10° NNW 00:09:49 87° WSW 00:11:12 54° SSE
Cosmos 1464 Rocket 4.1 00:08:47 46° SSE 00:10:35 67° E 00:16:45 10° NNE
Cosmos 836 Rocket 4.4 00:05:46 10° NNW 00:10:57 68° WSW 00:11:32 62° SSW
Lacrosse 4 Rocket 1.4 00:13:01 70° E 00:13:01 70° E 00:16:59 10° NE
Cosmos 1782 Rocket 3.5 00:12:54 70° ESE 00:12:59 71° E 00:17:19 10° NNE
Cosmos 2233 Rocket 4.5 00:10:46 36° SW 00:13:01 53° WNW 00:19:13 10° N
FALCON 9 DEB 4.0 00:15:49 49° NNE 00:15:49 49° NNE 00:18:57 10° ENE
Cosmos 2322 Rocket 3.9 00:13:35 10° WNW 00:17:21 18° W 00:17:43 18° WSW
Cosmos 1354 Rocket 4.3 00:16:38 50° SE 00:17:23 54° ESE 00:22:36 10° NNE
SL-4 R/B 3.9 00:22:19 16° E 00:22:19 16° E 00:23:06 10° E
Cosmos 968 Rocket 3.3 00:19:13 64° SSW 00:20:01 90° W 00:25:11 10° NNE
Landsat 4 3.8 00:16:38 10° NNE 00:20:07 73° NNE 00:20:07 73° NNE
SL-16 R/B 4.3 00:16:14 10° NNW 00:20:53 25° NE 00:25:29 10° E
Cosmos 1908 Rocket 3.8 00:21:10 55° W 00:21:26 56° WNW 00:25:46 10° N
COSMOS 2428 2.6 00:22:11 10° NNW 00:27:55 73° WSW 00:29:12 54° S
SL-16 R/B 3.4 00:28:37 19° SE 00:32:53 46° ENE 00:38:49 10° N
Nadezhda 4 Rocket 4.0 00:26:43 10° N 00:33:05 82° E 00:35:18 43° SSE
Cosmos 2360 Rocket 3.5 00:28:45 10° NW 00:33:15 25° WSW 00:33:24 25° WSW
CENTAUR R/B 3.7 00:27:48 10° W 00:33:54 44° NNW 00:41:05 10° NE
CZ-2D R/B 3.6 00:31:25 10° NE 00:36:03 27° E 00:38:05 22° SE
Cosmos 2034 Rocket 4.0 00:35:41 45° S 00:37:42 76° E 00:44:00 10° NNE
USA 267 4.0 00:33:04 10° E 00:39:22 53° NNE 00:45:42 10° WNW
Cosmos 1072 Rocket 4.5 00:39:08 46° SSW 00:41:00 72° WNW 00:47:08 10° N
Cosmos 1743 4.2 00:41:15 26° WNW 00:41:25 26° WNW 00:44:45 10° NNW
GEOS 3 Rocket 3.9 00:36:32 10° NE 00:41:50 52° SE 00:42:46 47° SSE
Okean 2 Rocket 3.3 00:41:46 53° SE 00:42:18 57° E 00:46:43 10° NNE
Meteor 2-9 Rocket 4.2 00:41:29 52° SSW 00:42:53 76° WNW 00:48:35 10° N
ADEOS II 4.4 00:41:38 10° NE 00:44:12 14° E 00:46:46 10° ESE
Cosmos 1092 Rocket 4.2 00:38:55 10° N 00:45:11 66° ENE 00:48:01 33° SSE
Cosmos 1544 4.2 00:45:29 35° WNW 00:45:29 35° WNW 00:48:39 10° N
Cosmos 1975 Rocket 3.4 00:41:09 10° NNW 00:45:29 49° W 00:45:36 49° W
Cosmos 1975 3.3 00:45:31 47° WNW 00:45:33 47° WNW 00:49:28 10° N
Cosmos 1980 3.8 00:41:17 10° NNW 00:47:00 74° ENE 00:49:51 30° SE
Cosmos 2297 Rocket 3.4 00:45:36 26° SE 00:47:07 30° ESE 00:51:58 10° NE
Cosmos 2219 4.1 00:45:50 30° SE 00:47:14 35° ESE 00:52:17 10° NE
Cosmos 2333 Rocket 2.6 00:42:05 10° NW 00:47:33 44° WSW 00:48:11 43° SW
PSLV R/B 4.0 00:43:05 10° N 00:47:38 60° WNW 00:48:26 52° WSW
COSMOS 2487 4.2 00:48:08 23° WNW 00:48:17 23° WNW 00:51:07 10° N
Helios 1B rocket 2.3 00:44:32 10° NNE 00:48:38 79° WNW 00:48:49 76° WSW
Sich 1 Rocket 3.4 00:48:43 72° SW 00:49:06 81° W 00:53:32 10° N
Meteor 1-29 3.2 00:49:07 10° NNE 00:52:12 65° NE 00:52:12 65° NE
UNK 4.5 00:52:23 30° SE 00:54:22 49° ENE 00:58:54 10° N
Cosmos 44 Rocket 3.3 00:49:31 10° NW 00:54:28 66° SW 00:55:08 59° SSW
Cosmos 2237 Rocket 2.2 00:51:21 10° NNW 00:57:04 81° ENE 00:59:51 31° SE
Cosmos 1503 Rocket 4.2 00:56:39 46° SW 00:58:10 68° WNW 01:03:33 10° NNE
Cosmos 1300 Rocket 3.4 00:57:53 66° SSE 00:58:22 77° E 01:02:42 10° NNE
DELTA 2 DEB (DPAF) 4.3 01:00:27 47° SE 01:01:36 71° ENE 01:06:03 10° N
Okean 1 Rocket 4.4 01:01:02 26° ESE 01:02:17 31° E 01:06:08 10° NNE
CZ-4 R/B 4.4 00:59:40 10° N 01:04:28 50° WNW 01:05:48 39° WSW
CZ-4C R/B 3.8 01:04:18 41° E 01:04:51 45° ENE 01:08:15 10° N
Spot 1 3.8 01:06:48 65° SSE 01:07:23 89° SSW 01:11:31 10° NNW
Iridium 51 4.4 01:03:38 10° N 01:08:05 79° E 01:08:42 62° SSE
Cosmos 2151 Rocket 3.5 01:12:29 60° S 01:13:17 83° E 01:17:42 10° NNE
Meteor 1-12 Rocket 4.3 01:11:28 43° SSW 01:13:36 86° WNW 01:19:40 10° NNE
Timation 2 Rocket 3.9 01:14:34 41° SSW 01:16:53 79° ESE 01:22:57 10° NNE
Cosmos 1707 3.3 01:13:30 10° NNW 01:17:05 44° W 01:17:05 44° W
In-Cosmos 22 4.1 01:11:42 10° NNW 01:17:21 75° W 01:19:15 42° S
Meteor 1-15 Rocket 4.5 01:22:53 34° SSE 01:25:21 64° E 01:30:54 10° NNE
Cosmos 1805 4.1 01:24:26 35° SE 01:25:22 42° E 01:29:04 10° NNE
DNEPR-1 R/B 4.1 01:20:08 10° NW 01:26:16 82° NE 01:31:05 11° SE
ERBS 2.5 01:23:13 10° NW 01:26:31 66° NNE 01:29:48 10° ESE
SJ 16-02 3.1 01:25:10 19° SE 01:26:54 24° E 01:30:29 10° NE
Meteor 2-13 Rocket 4.4 01:25:30 10° NNW 01:31:33 68° W 01:34:11 35° SSW
Cosmos 1538 Rocket 3.9 01:28:55 10° NNW 01:34:03 65° WSW 01:35:51 39° S
Cosmos 1025 Rocket 3.6 01:31:52 10° NNW 01:35:51 38° W 01:36:08 37° WSW
Cosmos 2227 Rocket 2.5 01:33:34 34° S 01:35:54 58° ESE 01:41:29 10° NE
Resurs 1-4 Rocket 2.1 01:31:52 10° NNE 01:37:12 80° ESE 01:39:24 36° S
MOZ.5/SAFIR/RUBIN 5/SL-8 4.1 01:36:59 43° SW 01:37:59 50° W 01:42:38 10° NNW
Cosmos 1674 2.5 01:35:32 10° NNW 01:39:16 79° W 01:39:47 63° SSW
Cosmos 1733 3.9 01:42:54 33° SE 01:44:08 47° E 01:47:50 10° NNE
ATLAS 3B R/B 3.8 01:41:02 10° W 01:47:07 37° NNW 01:53:20 10° NE
Cosmos 1536 Rocket 4.2 01:43:55 10° NNW 01:47:54 37° W 01:48:26 35° WSW
Cosmos 2026 Rocket 4.0 01:42:16 10° NNW 01:48:15 61° W 01:51:08 31° SSW
USA 215 3.7 01:42:02 10° ENE 01:48:19 47° SE 01:51:29 28° SSW
Cosmos 2279 Rocket 4.1 01:44:46 27° S 01:48:22 74° E 01:54:34 10° NNE
COBE Rocket 3.9 01:47:33 23° SSE 01:50:27 75° ENE 01:55:06 10° N
Lacrosse 4 Rocket 3.5 01:49:19 13° W 01:51:53 21° NW 01:55:07 10° NNE
FALCON 9 DEB 3.5 01:49:22 10° WNW 01:52:52 66° NNE 01:56:20 10° E
Cosmos 2219 Rocket 3.9 01:49:36 10° WNW 01:52:54 16° W 01:52:54 16° W
Cosmos 1634 Rocket 4.0 01:50:26 31° SSW 01:53:32 69° WNW 01:59:47 10° N
Cosmos 2344 4.4 01:45:08 10° NW 01:54:31 63° SW 02:07:31 10° SSE
Cosmos 2082 4.3 01:53:29 25° S 01:56:30 50° ESE 02:01:54 10° NE
SL-24 R/B 4.5 01:53:41 24° SSE 01:56:36 75° E 02:01:38 10° N
SL-4 R/B 1.3 01:58:02 35° W 01:59:18 70° SSW 02:02:41 10° ESE
Cosmos 2112 Rocket 4.3 01:54:20 10° NNW 01:59:35 68° ENE 02:04:45 10° SSE
Meteor 1-24 Rocket 3.6 01:59:08 10° NNW 02:04:42 87° E 02:08:55 17° SSE
SL-16 R/B 2.1 01:59:58 10° NNW 02:05:42 82° WSW 02:11:23 10° SSE
CBERS-1 4.2 02:00:54 10° NNE 02:06:02 67° ESE 02:09:09 24° S
Meteor 2-5 Rocket 3.7 02:02:45 10° NNW 02:08:24 70° W 02:11:59 23° S
ARIANE 5 R/B 3.7 02:08:30 10° NNE 02:13:24 39° E 02:18:02 11° SSE
H-2A R/B 4.3 02:11:57 10° ESE 02:15:17 24° ENE 02:18:37 10° N
Cosmos 1898 Rocket 4.3 02:11:41 18° S 02:15:18 45° ESE 02:20:16 10° NE
NPP 3.8 02:10:04 10° N 02:15:24 63° WNW 02:18:23 26° SW
IDEFIX/ARIANE 42P 4.2 02:11:41 10° NE 02:16:11 29° E 02:20:40 10° SSE
CZ-2D R/B 2.5 02:11:03 10° N 02:16:24 54° WNW 02:19:24 25° SW
SL-16 R/B 3.1 02:13:43 26° SW 02:16:35 39° W 02:22:25 10° NNW
Cosmos 1680 Rocket 3.4 02:12:08 10° NNW 02:17:24 79° WSW 02:22:36 10° SSE
GEOS 3 Rocket 4.5 02:14:40 10° NE 02:19:48 45° NW 02:23:51 16° WSW
NOSS 3-1 (C) 4.3 02:17:24 17° S 02:21:03 37° ESE 02:26:46 10° NE
AQUA 4.0 02:17:12 10° N 02:21:55 61° WNW 02:24:26 27° SW
USA 267 3.2 02:15:36 10° ESE 02:22:10 89° SSW 02:28:45 10° WNW
Cosmos 1544 Rocket 4.5 02:20:01 14° SSE 02:23:40 46° E 02:27:58 10° NNE
Cosmos 1607 4.0 02:18:02 10° NW 02:24:24 63° WSW 02:30:45 10° SSE
ADEOS II 2.1 02:19:25 10° NNE 02:24:44 84° ESE 02:28:24 20° SSW
Cosmos 990 Rocket 4.4 02:23:19 19° S 02:26:56 60° ESE 02:32:02 10° NNE
Cosmos 1766 3.7 02:26:33 30° SW 02:28:02 46° WNW 02:31:49 10° N
IRS-1D 3.5 02:23:31 10° NNE 02:28:34 79° WNW 02:31:54 22° SSW
Cosmos 2263 Rocket 4.0 02:25:05 10° SSE 02:29:31 25° ESE 02:33:57 10° NE
Meteor 1-22 Rocket 4.0 02:27:12 22° SSW 02:30:39 80° WNW 02:36:01 10° N
Cosmos 2297 Rocket 2.6 02:27:24 22° SW 02:30:54 54° NW 02:36:28 10° NNE
Cosmos 2219 3.8 02:27:45 21° WSW 02:31:16 47° NW 02:36:42 10° NNE
Okean 1-7 Rocket 3.5 02:26:54 10° NNW 02:31:20 82° W 02:35:04 14° S
IRS-1C 4.3 02:28:57 10° NNE 02:34:20 74° ESE 02:38:43 16° S
Cosmos 1626 2.6 02:33:53 10° NNW 02:37:25 41° W 02:38:56 27° SW
Cosmos 2266 Rocket 4.0 02:31:50 10° NNW 02:38:15 77° W 02:44:30 10° S
Cosmos 1655 Rocket 4.1 02:32:54 10° NNW 02:39:03 59° W 02:44:28 13° S
Meteor 1-28 Rocket 3.1 02:36:22 12° SSE 02:39:46 85° WSW 02:43:37 10° NNW
Okean 1 Rocket 4.1 02:38:14 21° WSW 02:40:10 30° WNW 02:44:02 10° N
Cosmos 2237 Rocket 3.6 02:36:35 10° WNW 02:40:26 19° W 02:41:37 18° WSW
CZ-4B R/B 3.6 02:37:09 10° N 02:41:50 54° WNW 02:44:51 21° SW
Cosmos 1470 2.8 02:41:43 19° S 02:44:32 86° E 02:48:33 10° N
Cosmos 1603 4.2 02:39:28 10° NNW 02:45:12 65° ENE 02:50:53 10° SE
SL-08 R/B 3.4 02:44:15 10° S 02:49:10 65° WSW 02:54:08 10° NNW
Cosmos 2098 Rocket 3.6 02:48:43 10° NNW 02:53:16 57° W 02:59:00 10° S
USA 229 DEB 4.1 02:48:34 14° SSW 02:54:04 56° ESE 03:00:46 10° NE
USA 229 4.1 02:48:40 14° SSW 02:54:09 56° ESE 03:00:49 10° NE
SL-14 R/B 4.4 02:58:31 10° NNW 03:01:50 26° W 03:03:47 18° SW
ERBS 3.6 03:00:01 10° W 03:03:33 17° SSW 03:04:59 10° S
Meteor 2-14 Rocket 4.5 02:56:59 10° N 03:03:05 89° E 03:09:09 10° S
NOSS 3-1 (A) 4.1 03:00:07 10° SSW 03:05:14 46° ESE 03:11:17 10° NE
SJ 16-02 2.0 03:02:10 17° SW 03:05:16 43° WNW 03:09:30 10° N
CSL-04 DEB 4.2 03:06:42 10° SSE 03:10:36 83° WSW 03:14:34 10° NNW
Cosmos 1809 Rocket 4.5 03:06:15 10° NNW 03:12:18 67° W 03:18:21 10° S
MSX 4.4 03:06:41 10° NNE 03:12:24 60° E 03:18:05 10° S
Cosmos 1943 3.3 03:06:50 10° NNW 03:12:30 83° ENE 03:18:07 10° SSE
IRS-P3 4.4 03:07:55 10° N 03:13:07 53° WNW 03:17:57 12° SW
Cosmos 1626 Rocket 3.5 03:09:22 10° NNW 03:13:40 65° W 03:17:55 10° S
Cosmos 1455 Rocket 3.7 03:11:32 14° SW 03:14:58 41° WNW 03:19:13 10° N
Resurs 1-4 Rocket 3.8 03:12:43 10° N 03:16:25 20° NW 03:20:08 10° W
Cosmos 1758 3.6 03:13:24 13° SSW 03:16:53 52° WNW 03:20:50 10° N
Spot 4 Rocket 4.1 03:11:52 10° NNE 03:17:05 88° WNW 03:22:15 10° SSW
Meteor 1-21 Rocket 4.2 03:11:49 10° NNW 03:17:25 78° W 03:22:55 10° S
Cosmos 2227 Rocket 3.4 03:15:24 10° WSW 03:20:19 31° NW 03:25:22 10° NNE
SeaSat 1 3.4 03:16:37 10° NE 03:21:23 45° ESE 03:26:06 10° S
CZ-2C R/B 2.9 03:21:19 10° NNE 03:25:15 79° ESE 03:29:04 10° S
Landsat 5 3.3 03:21:27 10° SSE 03:25:21 79° WSW 03:29:25 10° NNW
CZ-2D R/B 3.5 03:22:47 10° N 03:26:51 64° WNW 03:30:47 10° SSW
Cosmos 1461 3.2 03:23:26 12° SW 03:27:25 65° NW 03:32:01 10° NE
Cosmos 1048 Rocket 4.4 03:24:06 10° NNW 03:29:14 67° ENE 03:34:23 10° SSE
FALCON 9 DEB 3.7 03:26:33 10° WNW 03:29:47 36° SW 03:32:59 10° SSE
Cosmos 2227 4.4 03:25:31 10° SSW 03:31:15 76° ESE 03:37:03 10° NNE
USA 215 3.4 03:25:03 10° ENE 03:31:37 75° NNW 03:38:08 10° WSW
Cosmos 1758 Rocket 3.7 03:27:18 10° N 03:31:39 77° E 03:35:57 10° SSE
ATLAS CENTAUR R/B 4.0 03:30:40 10° SSE 03:33:02 15° ESE 03:35:20 10° E
Cosmos 1340 Rocket 3.6 03:29:56 11° SW 03:33:31 35° WNW 03:37:13 10° N
ERS-2 2.1 03:33:00 10° S 03:36:38 64° WSW 03:40:16 10° NNW
Cosmos 2228 4.1 03:33:38 10° SSE 03:37:49 47° E 03:42:03 10° NNE
SL-4 R/B 3.1 03:36:03 10° W 03:38:22 17° SW 03:40:41 10° S
Cosmos 1953 2.5 03:35:51 10° SSW 03:39:48 57° WNW 03:43:49 10° N
Cosmos 1726 2.6 03:39:12 10° SSW 03:42:44 44° WNW 03:46:17 10° N
Cosmos 1908 3.4 03:41:01 10° S 03:44:55 80° E 03:48:52 10° NNE
Meteor 1-16 Rocket 4.2 03:40:43 10° SSW 03:46:06 85° WNW 03:51:40 10° NNE
Cosmos 2285 Rocket 4.4 03:41:38 10° S 03:47:51 67° ESE 03:54:07 10° NNE
SL-16 R/B 3.8 03:45:52 10° WNW 03:48:54 15° W 03:51:57 10° SW
H-2A R/B 2.4 03:47:14 10° S 03:51:06 39° W 03:54:59 10° NNW
